TELSTAR 18V (APSTAR 5C)

Last updated on Sept. 24, 2020, 5:43 a.m. UTC

1 43611U 18069A   20267.58382814 -.00000314  00000-0  00000-0 0  9994
2 43611   0.0182 197.5008 0002052 332.4957 181.0748  1.00270720  7645
UTC
Height (km)
Latitude
Longitude
Inclination
Orbital Period
UTC large
Height (km)
Speed (km/s)
/
Latitude / Longitude
Inclination (degrees)
Orbital Period (minutes)
Azimuth
Elevation
Range (km)
Doppler Factor
iOS Compass Heading
iOS Angle

Next 30 passes for location: Hong Kong

Rise time Rise Azimuth (degrees) Set time Set Azimuth (degrees) Duration Max altitude (degrees)

No matching passes for this satellites